Weather in Poissy

France     48°55′53″N   2°02′43″E
temp.,
°C
wind,
m/s
gust,
m/s
humid.,
%
clouds,
%
prec.,
mm/h
press.,
hPa
HPBL,
m
2 july, sat
sat223:00+16s27553 0.0 1021175
02:00+13wnw11681 0.0 102224
05:00+12ene00730 0.0 102211
08:00+15sse12611 0.0 1021184
11:00+20s344416 0.0 1021973
14:00+24ssw34340 0.0 10201873
17:00+26ssw34300 0.0 10182251
20:00+25s34369 0.0 1017764
3 july, sun
sun323:00+17n37600 0.0 1020230
02:00+15nnw23655 0.0 1020111
05:00+13nnw13735 0.0 102089
08:00+14nw24775 0.0 1021264
11:00+20nw335711 0.0 10201064
14:00+24w35380 0.0 10201897
17:00+25nw45312 0.0 10192304
20:00+22nnw55415 0.0 10191229
4 july, mon
mon423:00+17nw37580 0.0 1022342
02:00+13nw24741 0.0 1022138
05:00+12nw13810 0.0 102286
08:00+14nw23730 0.0 1022214
11:00+20nw22480 0.0 10221120
14:00+24nw23330 0.0 10211782
17:00+26nnw34260 0.0 10202391
20:00+23nnw56340 0.0 10211212
5 july, tue
tue523:00+16n38540 0.0 1023307
02:00+13nw23710 0.0 1024125
05:00+12nnw23800 0.0 1024103
08:00+14nnw23750 0.0 1025219
11:00+20n23490 0.0 10251046
14:00+24n33320 0.0 10251878
17:00+26nne33290 0.0 10242260
20:00+24nne44350 0.0 10241796
6 july, wed
wed623:00+18nne410530 0.0 1026476
02:00+15nne38530 0.0 1026260
05:00+13n24590 0.0 1026140
08:00+15ne25540 0.0 1026242
11:00+21ne45380 0.0 1026926
14:00+25ne45330 0.0 10251648
17:00+26ne45340 0.0 10241903
20:00+24nne56475 0.0 10241324